Flag for U.S.A. Weather past 2 weeks in Pembroke Pines, Florida, U.S.A.

Now
76 °F

Overcast.


Feels Like: 76 °F
Forecast: 75 / 87 °F
Wind: No wind

Location: North Perry Airport

Current Time: Apr 25, 2015 at 5:16:59 AM

Latest Report: Apr 25, 2015 at 4:53 AM


Visibility: 10 mi

Pressure: 29.93 "Hg

Humidity: 85%

Dew point: 71 °F

Location of Pembroke PinesLocation

Historic Weather in Pembroke Pines — Graph

°F

Pembroke Pines temperature yesterday

Maximum temperature yesterday: 90 °F (at 1:53 PM)
Minimum temperature yesterday: 73 °F (at 2:53 AM)
Average temperature yesterday: 80 °F

Past Weeks' High & Low Weather Summary

 TemperatureHumidityPressure
High91 °F (Apr 18, 2:53 PM)97% (Apr 24, 1:53 AM)30.18 "Hg (Apr 24, 1:53 AM)
Low72 °F (Apr 23, 6:53 AM)41% (Apr 19, 3:53 PM)29.85 "Hg (Apr 20, 4:53 PM)
Average80 °F73%30.03 "Hg
* Reported Apr 10 3:53 AM — Apr 25 3:53 AM, Pembroke Pines, Weather by CustomWeather, © 2015

Note: Actual official high and low records may vary slightly from our data, if they occured in-between our weather recording intervals... More about our weather records

Advertising

Pembroke Pines weather history for previous 24 hours

 ConditionsComfort  
Time TempWeatherWind HumidityBarometerVisibility
3:53 AM
Sat, Apr 25
76 °FClear.No wind82%29.93 "Hg10 mi
2:53 AM77 °FClear.3 mph82%29.93 "Hg10 mi
1:53 AM77 °FPassing clouds.5 mph82%29.97 "Hg10 mi
12:53 AM78 °FPassing clouds.3 mph79%29.98 "Hg10 mi
11:53 PM
Fri, Apr 24
78 °FPassing clouds.6 mph79%29.99 "Hg10 mi
10:53 PM79 °FPassing clouds.5 mph77%29.99 "Hg10 mi
9:53 PM79 °FClear.6 mph74%29.98 "Hg10 mi
8:53 PM80 °FOvercast.9 mph74%29.96 "Hg10 mi
6:53 PM82 °FPassing clouds.10 mph72%29.95 "Hg10 mi
5:53 PM85 °FPassing clouds.12 mph68%29.94 "Hg10 mi
4:53 PM85 °FScattered clouds.12 mph68%29.93 "Hg10 mi
3:53 PM85 °FBroken clouds.13 mph68%29.94 "Hg10 mi
2:53 PM89 °FPartly sunny.9 mph50%29.95 "Hg10 mi
1:53 PM90 °FScattered clouds.10 mph52%29.96 "Hg10 mi
12:53 PM87 °FScattered clouds.12 mph57%29.98 "Hg10 mi
11:53 AM86 °FScattered clouds.10 mph63%30.00 "Hg10 mi
10:53 AM83 °FScattered clouds.10 mph72%30.01 "Hg10 mi
9:53 AM80 °FPartly sunny.7 mph79%30.00 "Hg10 mi
9:04 AM78 °FMostly cloudy.5 mph82%29.99 "Hg10 mi
8:53 AM78 °FBroken clouds.7 mph82%29.98 "Hg10 mi
7:53 AM75 °FOvercast.No wind94%29.96 "Hg10 mi
6:53 AM74 °FPassing clouds.3 mph94%29.95 "Hg10 mi
5:53 AM74 °FOvercast.No wind94%29.94 "Hg10 mi
Weather by CustomWeather, © 2015

See weather overviewHow to use our weather pages